Radiation Dose measured at Intake/Vertical shaft monitor
Date,Time,Intake(cps),Vertical shaft(cps),Rain
2024/04/24,00:00,6.2,4.6,Yes
2024/04/24,00:10,6.3,4.4,Yes
2024/04/24,00:20,6.2,4.5,Yes
2024/04/24,00:30,6.3,4.4,No
2024/04/24,00:40,6.3,4.6,Yes
2024/04/24,00:50,6.1,4.6,Yes
2024/04/24,01:00,6.1,4.5,Yes
2024/04/24,01:10,6.1,4.4,Yes
2024/04/24,01:20,6.0,4.5,Yes
2024/04/24,01:30,6.0,4.7,No
2024/04/24,01:40,6.1,4.5,No
2024/04/24,01:50,6.0,4.4,No
2024/04/24,02:00,6.1,4.5,No
2024/04/24,02:10,6.0,4.4,No
2024/04/24,02:20,6.0,4.4,No
2024/04/24,02:30,6.0,4.4,No
2024/04/24,02:40,6.0,4.4,Yes
2024/04/24,02:50,6.0,4.4,Yes
2024/04/24,03:00,6.1,4.3,No
2024/04/24,03:10,6.0,4.3,No
2024/04/24,03:20,6.0,4.4,No
2024/04/24,03:30,6.0,4.3,No
2024/04/24,03:40,6.0,4.3,No
2024/04/24,03:50,6.0,4.5,No
2024/04/24,04:00,6.0,4.4,No
2024/04/24,04:10,6.1,4.5,Yes
2024/04/24,04:20,6.1,4.4,Yes
2024/04/24,04:30,6.1,4.3,Yes
2024/04/24,04:40,5.8,4.4,Yes
2024/04/24,04:50,6.1,4.3,Yes
2024/04/24,05:00,6.0,4.4,Yes
2024/04/24,05:10,6.2,4.5,Yes
2024/04/24,05:20,6.0,4.3,Yes
2024/04/24,05:30,6.1,4.5,Yes
2024/04/24,05:40,6.2,4.5,Yes
2024/04/24,05:50,6.1,4.4,Yes
2024/04/24,06:00,6.0,4.6,Yes
2024/04/24,06:10,6.2,4.4,Yes
2024/04/24,06:20,6.2,4.4,No
2024/04/24,06:30,5.9,4.6,Yes
2024/04/24,06:40,6.1,4.3,Yes
2024/04/24,06:50,6.1,4.4,No
2024/04/24,07:00,6.0,4.5,No
2024/04/24,07:10,6.1,4.5,No
2024/04/24,07:20,6.2,4.5,No
2024/04/24,07:30,5.9,4.5,No
2024/04/24,07:40,5.9,4.5,No
2024/04/24,07:50,6.0,4.5,No
2024/04/24,08:00,6.1,4.5,No
2024/04/24,08:10,6.1,4.4,Yes
2024/04/24,08:20,6.1,4.4,Yes
2024/04/24,08:30,6.0,4.4,No
2024/04/24,08:40,6.0,4.5,No
2024/04/24,08:50,6.2,4.4,No
2024/04/24,09:00,6.1,4.5,No
2024/04/24,09:10,6.3,4.4,No
2024/04/24,09:20,6.2,4.5,No
2024/04/24,09:30,6.2,4.4,No
2024/04/24,09:40,6.2,4.5,No
2024/04/24,09:50,6.2,4.4,No
2024/04/24,10:00,6.2,4.6,No
2024/04/24,10:10,6.4,4.5,Yes
2024/04/24,10:20,6.4,4.5,Yes
2024/04/24,10:30,6.5,4.5,Yes
2024/04/24,10:40,6.4,4.5,Yes
2024/04/24,10:50,6.2,4.5,Yes
2024/04/24,11:00,6.6,4.6,Yes
2024/04/24,11:10,6.6,4.6,Yes
2024/04/24,11:20,6.4,4.6,Yes
2024/04/24,11:30,6.5,4.6,Yes
2024/04/24,11:40,6.5,4.7,Yes
2024/04/24,11:50,6.6,4.7,Yes
2024/04/24,12:00,6.5,4.8,Yes
2024/04/24,12:10,6.7,4.7,Yes
2024/04/24,12:20,6.6,4.9,Yes
2024/04/24,12:30,6.7,4.7,Yes
2024/04/24,12:40,6.5,4.8,Yes
2024/04/24,12:50,6.4,4.7,Yes
2024/04/24,13:00,6.5,4.6,Yes
2024/04/24,13:10,6.5,4.6,Yes
2024/04/24,13:20,6.6,4.5,Yes
2024/04/24,13:30,6.6,4.6,Yes
2024/04/24,13:40,6.4,4.7,Yes
2024/04/24,13:50,6.8,4.8,Yes
2024/04/24,14:00,6.6,4.7,Yes
2024/04/24,14:10,6.5,4.8,Yes
2024/04/24,14:20,6.5,4.7,Yes
2024/04/24,14:30,6.4,4.6,Yes
2024/04/24,14:40,6.3,4.7,-
2024/04/24,14:50,6.2,4.6,Yes
2024/04/24,15:00,6.6,4.7,Yes
2024/04/24,15:10,6.5,4.7,Yes
2024/04/24,15:20,6.2,4.6,Yes
2024/04/24,15:30,6.1,4.7,Yes
2024/04/24,15:40,6.3,4.6,Yes
2024/04/24,15:50,6.4,4.7,Yes
2024/04/24,16:00,6.1,4.5,Yes
2024/04/24,16:10,6.1,4.4,Yes
2024/04/24,16:20,6.3,4.5,Yes
2024/04/24,16:30,6.1,4.4,Yes
2024/04/24,16:40,6.1,4.5,Yes
2024/04/24,16:50,6.2,4.4,Yes
2024/04/24,17:00,6.0,4.4,No
2024/04/24,17:10,6.1,4.4,Yes
2024/04/24,17:20,6.0,4.5,No
2024/04/24,17:30,6.1,4.5,Yes
2024/04/24,17:40,6.0,4.7,Yes
2024/04/24,17:50,6.2,4.6,Yes
2024/04/24,18:00,6.0,4.6,Yes
2024/04/24,18:10,6.1,4.5,Yes
2024/04/24,18:20,6.1,4.4,Yes
2024/04/24,18:30,6.2,4.5,No
2024/04/24,18:40,6.4,4.5,Yes
2024/04/24,18:50,6.1,4.4,Yes
2024/04/24,19:00,6.2,4.5,Yes
2024/04/24,19:10,6.3,4.6,Yes
2024/04/24,19:20,6.2,4.5,Yes
2024/04/24,19:30,6.0,4.6,Yes
2024/04/24,19:40,5.9,4.4,Yes
2024/04/24,19:50,5.9,4.4,Yes
2024/04/24,20:00,6.1,4.4,Yes
2024/04/24,20:10,6.3,4.5,Yes
2024/04/24,20:20,6.2,4.6,Yes
2024/04/24,20:30,6.3,4.4,Yes
2024/04/24,20:40,6.2,4.5,Yes
2024/04/24,20:50,6.2,4.6,Yes
2024/04/24,21:00,6.3,4.4,Yes
2024/04/24,21:10,6.3,4.4,Yes
2024/04/24,21:20,6.2,4.4,Yes
2024/04/24,21:30,6.3,4.6,Yes
2024/04/24,21:40,6.2,4.5,Yes
2024/04/24,21:50,6.4,4.6,Yes
2024/04/24,22:00,6.2,4.6,Yes
2024/04/24,22:10,6.3,4.4,Yes
2024/04/24,22:20,6.3,4.4,Yes
2024/04/24,22:30,6.2,4.6,Yes
2024/04/24,22:40,6.1,4.5,Yes
2024/04/24,22:50,6.2,4.5,Yes
2024/04/24,23:00,6.2,4.5,Yes
2024/04/24,23:10,6.4,4.6,Yes
2024/04/24,23:20,6.3,4.7,Yes
2024/04/24,23:30,6.3,4.6,Yes
2024/04/24,23:40,6.3,4.7,Yes
2024/04/24,23:50,6.1,4.5,Yes
